Overview Statistics Trail Chart Weather Telemetry Raw packets
 

This is the latest recevied weather packets stored in our database for station/object DH9SB-6. If no packets are shown the sender has not sent any weather packets the latest 10 day(s).

<< 8 9 10 11 12 13 14 >>
Time Temp. Humidity Pressure Rain* Wind** Luminosity Snow
1788025354 23.33° C 51% - 0 mm - - -
1788024778 23.33° C 51% - 0 mm - - -
1788024155 23.33° C 50% - 0 mm - - -
1788023577 23.33° C 49% - 0 mm - - -
1788022954 23.89° C 48% - 0 mm - - -
1788022378 23.89° C 47% - 0 mm - - -
1788021754 24.44° C 47% - 0 mm - - -
1788021177 24.44° C 46% - 0 mm - - -
1788020602 24.44° C 46% - 0 mm - - -
1788019982 25° C 44% - 0 mm - - -
1788019353 25° C 44% - 0 mm - - -
1788018777 25° C 43% - 0 mm - - -
1788018154 25.56° C 42% - 0 mm - - -
1788017578 26.67° C 41% - 0 mm - - -
1788016954 27.22° C 38% - 0 mm - - -
1788016377 27.22° C 40% - 0 mm - - -
1788015754 27.22° C 37% - 0 mm - - -
1788015178 27.22° C 40% - 0 mm - - -
1788014554 26.67° C 41% - 0 mm - - -
1788013978 26.11° C 41% - 0 mm - - -
1788013354 26.67° C 40% - 0 mm - - -
1788012781 26.11° C 40% - 0 mm - - -
1788012207 25.56° C 40% - 0 mm - - -
1788011579 25.56° C 40% - 0 mm - - -
1788010957 25° C 42% - 0 mm - - -

* Rain latest hour (hover to see other rain measurements)
** Current wind speed in m/s (hover to see current wind gust speed)